Content
SEND FEEDBACK

Daily
Averages
Monthly
Summary
Greece

ATHENS, GREECE


Home > Europe > Greece
Elevation: 69 feet     Latitude: 37 54N     Longitude: 023 44E

WEATHER
 
SELECT A DAY
Number of Records: 76,707;   Date Range: 4/14/01 - 7/28/14
 
SHARE

PRINT THIS DATA

[ ← Previous Day ]
WEATHER ALMANAC - JULY 16, 2013
[ Next Day → ]
[ °C ]   °F
Weather ElementAverageHighLow
Temperature79.6 °F87.8 °F (3:20 pm)68 °F (3:20 am)
Dewpoint52 °F53.6 °F (8:50 am)48.2 °F (10:50 pm)
Humidity39.1 %56 % (3:20 am)30 % (5:50 pm)
Barometer29.26 in29.95 in (10:50 pm) (7:00 pm)
Wind Speed11.6 mph26.5 mph (4:50 pm)
Weather ElementAverage
Visibility6.2 mi
Wind DirectionENE (70.7 °)

Weather ElementTotal
Precipitation---
Cooling Degree Days12.9 (Base 65)
Growing Degree Days27.9 (Base 50)
Averaged from 46 records on July 16, 2013
WEATHER CONDITIONS BREAKOUT
WIND DIRECTION BREAKOUT
WEATHER BY HOUR - JULY 16, 2013
[ °C ]   °F
Local TimeTemperatureDewpointHumidityBarometerVisibilityWind DirectionWind SpeedGust SpeedPrecipitationEventsConditions
12:50 AM69.8 °F51.8 °F53 %29.92 in6.2 miCalmPartly Cloudy
1:20 AM71.6 °F51.8 °F50 %29.89 in6.2 miVariable2.3 mphPartly Cloudy
1:50 AM69.8 °F51.8 °F53 %29.89 in6.2 miWNW (300°)4.6 mphPartly Cloudy
2:20 AM71.6 °F51.8 °F50 %29.89 in6.2 miVariable1.2 mphPartly Cloudy
2:50 AM69.8 °F51.8 °F53 %29.89 in6.2 miCalmPartly Cloudy
3:20 AM68.0 °F51.8 °F56 %29.89 in6.2 miCalmPartly Cloudy
3:50 AM71.6 °F51.8 °F50 %29.89 in6.2 miNNW (330°)2.3 mphPartly Cloudy
4:20 AM68.0 °F50.0 °F52 %29.89 in6.2 miNNW (330°)3.5 mphPartly Cloudy
4:50 AM71.6 °F51.8 °F50 %29.89 in6.2 miCalmPartly Cloudy
5:20 AM75.2 °F51.8 °F44 %29.89 in6.2 miENE (70°)1.2 mphPartly Cloudy
5:50 AM71.6 °F51.8 °F50 %29.89 in6.2 miVariable3.5 mphPartly Cloudy
6:20 AM71.6 °F51.8 °F50 %29.92 in6.2 miNorth (10°)5.8 mphPartly Cloudy
6:50 AM77.0 °F51.8 °F41 %29.89 in6.2 miVariable3.5 mphPartly Cloudy
7:20 AM77.0 °F51.8 °F41 %29.92 in6.2 miVariable3.5 mphPartly Cloudy
7:50 AM77.0 °F51.8 °F41 %29.92 in6.2 miVariable2.3 mphPartly Cloudy
8:20 AM80.6 °F51.8 °F37 %29.92 in6.2 miNNW (340°)6.9 mphPartly Cloudy
8:50 AM80.6 °F53.6 °F39 %29.92 inNNE (20°)11.5 mphClear
9:20 AM82.4 °F53.6 °F37 %29.92 inNNE (20°)11.5 mphClear
9:50 AM82.4 °F53.6 °F37 %29.92 inNNE (20°)13.8 mphClear
10:20 AM84.2 °F51.8 °F33 %29.92 in6.2 miNorth (10°)13.8 mphPartly Cloudy
10:50 AM84.2 °F53.6 °F35 %29.92 in6.2 miNNE (20°)18.4 mphPartly Cloudy
11:20 AM86.0 °F53.6 °F33 %29.92 in6.2 miNNE (30°)17.3 mphPartly Cloudy
11:50 AM84.2 °F53.6 °F35 %29.92 in6.2 miNNE (30°)17.3 mphPartly Cloudy
12:20 PM86.0 °F53.6 °F33 %29.92 in6.2 miNNE (30°)15.0 mphPartly Cloudy
12:50 PM86.0 °F51.8 °F31 %29.92 in6.2 miNNE (30°)19.6 mphPartly Cloudy
1:20 PM86.0 °F51.8 °F31 %29.92 in6.2 miNE (40°)21.9 mphScattered Clouds
1:50 PM86.0 °F51.8 °F31 %29.92 in6.2 miNNE (30°)21.9 mphScattered Clouds
2:20 PM86.0 °F53.6 °F33 %29.92 in6.2 miNNE (30°)23.0 mphScattered Clouds
2:50 PM86.0 °F51.8 °F31 %29.92 in6.2 miNE (40°)25.3 mphPartly Cloudy
3:20 PM87.8 °F53.6 °F31 %29.92 in6.2 miNE (50°)23.0 mphPartly Cloudy
3:50 PM86.0 °F53.6 °F33 %29.89 in6.2 miNE (50°)24.2 mphPartly Cloudy
4:20 PM86.0 °F53.6 °F33 %29.89 in6.2 miNE (40°)24.2 mphPartly Cloudy
4:50 PM86.0 °F53.6 °F33 %29.89 in6.2 miNE (50°)26.5 mphPartly Cloudy
5:20 PM86.0 °F51.8 °F31 %29.89 in6.2 miNE (50°)23.0 mphPartly Cloudy
5:50 PM84.2 °F50.0 °F30 %29.89 in6.2 miNNE (30°)23.0 mphPartly Cloudy
6:20 PM84.2 °F50.0 °F30 %29.89 in6.2 miNNE (30°)20.7 mphPartly Cloudy
6:50 PM82.4 °F51.8 °F35 %29.89 in6.2 miNNE (30°)17.3 mphPartly Cloudy
7:20 PM82.4 °F51.8 °F35 %29.89 in6.2 miNNE (30°)13.8 mphPartly Cloudy
7:50 PM80.6 °F51.8 °F37 %29.89 in6.2 miNNE (30°)13.8 mphPartly Cloudy
8:20 PM80.6 °F53.6 °F39 %29.92 in6.2 miNNE (30°)12.7 mphPartly Cloudy
8:50 PM80.6 °F51.8 °F37 %29.92 in6.2 miNNE (20°)8.1 mphPartly Cloudy
9:20 PM78.8 °F51.8 °F39 %29.92 in6.2 miNorth (10°)6.9 mphPartly Cloudy
9:50 PM78.8 °F51.8 °F39 %29.92 in6.2 miNorth (350°)4.6 mphPartly Cloudy
10:20 PM78.8 °F50.0 °F36 %29.92 in6.2 miNNW (340°)5.8 mphPartly Cloudy
10:50 PM78.8 °F48.2 °F34 %29.95 in6.2 miNNW (330°)8.1 mphPartly Cloudy
11:50 PM77.0 °F48.2 °F36 %6.2 miNE (50°)8.1 mphPartly Cloudy
Hourly data recorded from LGAV, located miles away from Athens, Greece







STORIES FROM OUR PARTNERS